Location: CCZU
(31.6840°N, 119.9550°E)
Time: 15:55:35
(UTC+08:00)

Tiangong - Pass Details

Date: 11 December 2021
Orbit: 381 x 387 km, 41.5° (Epoch: 27 January)

Event Time Altitude Azimuth Distance (km) Brightness Sun altitude
Rises 17:41:59 0° 271° (W) 2,281 6.4 -9.6°
Reaches altitude 10° 17:44:20 10° 286° (WNW) 1,425 4.8 -10.0°
Maximum altitude 17:47:01 24° 342° (NNW) 864 2.8 -10.6°
Enters shadow 17:49:15 13° 34° (NNE) 1,276 3.2 -11.0°
